This is the latest recevied weather packets stored in our database for station/object N9WHM. If no packets are shown the sender has not sent any weather packets the latest 10 day(s).
| Time | Temp. | Humidity | Pressure | Rain* | Wind** | Luminosity | Snow |
|---|---|---|---|---|---|---|---|
| 1778182613 | 20.56° C | 28% | 1009.5 hPa | 0 mm | - | 765 W/m² | - |
| 1778182311 | 20.56° C | 27% | 1009.6 hPa | 0 mm | - | 783 W/m² | - |
| 1778182006 | 18.89° C | 28% | 1009.8 hPa | 0 mm | - | 793 W/m² | - |
| 1778181704 | 18.89° C | 28% | 1009.6 hPa | 0 mm | - | 776 W/m² | - |
| 1778181399 | 19.44° C | 29% | 1009.6 hPa | 0 mm | - | 780 W/m² | - |
| 1778181096 | 20° C | 32% | 1009.5 hPa | 0 mm | - | 774 W/m² | - |
| 1778180793 | 18.89° C | 33% | 1009.6 hPa | 0 mm | - | 775 W/m² | - |
| 1778180492 | 20° C | 35% | 1009.6 hPa | 0 mm | - | 783 W/m² | - |
| 1778180190 | 20° C | 34% | 1009.5 hPa | 0 mm | - | 783 W/m² | - |
| 1778179886 | 19.44° C | 34% | 1009.4 hPa | 0 mm | - | 784 W/m² | - |
| 1778179584 | 19.44° C | 34% | 1009.5 hPa | 0 mm | - | 780 W/m² | - |
| 1778179282 | 18.89° C | 35% | 1009.8 hPa | 0 mm | - | 784 W/m² | - |
| 1778178978 | 18.33° C | 37% | 1009.7 hPa | 0 mm | - | 789 W/m² | - |
| 1778178675 | 17.78° C | 38% | 1009.8 hPa | 0 mm | - | 787 W/m² | - |
| 1778178371 | 18.89° C | 35% | 1009.9 hPa | 0 mm | - | 785 W/m² | - |
| 1778178067 | 18.89° C | 35% | 1009.8 hPa | 0 mm | - | 782 W/m² | - |
| 1778177765 | 18.89° C | 36% | 1009.8 hPa | 0 mm | - | 781 W/m² | - |
| 1778177461 | 18.89° C | 37% | 1009.9 hPa | 0 mm | - | 776 W/m² | - |
| 1778177157 | 18.33° C | 40% | 1010 hPa | 0 mm | - | 778 W/m² | - |
| 1778176854 | 17.78° C | 38% | 1010.1 hPa | 0 mm | - | 776 W/m² | - |
| 1778176550 | 18.33° C | 40% | 1010.2 hPa | 0 mm | - | 770 W/m² | - |
| 1778176248 | 17.78° C | 39% | 1010.3 hPa | 0 mm | - | 766 W/m² | - |
| 1778175945 | 17.78° C | 36% | 1010.4 hPa | 0 mm | - | 761 W/m² | - |
| 1778175643 | 16.67° C | 41% | 1010.2 hPa | 0 mm | - | 762 W/m² | - |
| 1778175339 | 17.78° C | 40% | 1010.3 hPa | 0 mm | - | 754 W/m² | - |
* Rain latest hour (hover to see other rain measurements)
** Current wind speed in m/s (hover to see current wind gust speed)